SBI729 UUDD-UWGG

Flight info

Callsign SBI729
Flight time 0h 51m
Altitude 33000
Route KOGOM4S KOGOM L94 USTOK USTOK2Z
Aircraft A320/M-SDE3FGHIRWY/LB1

Departure

Time 2026-04-22 14:47
Airport Domodedovo International Airport (UUDD)

Arrival

Time 2026-04-22 15:38
Airport Nizhny Novgorod / Strigino International Airport (UWGG)
Time Latitude Longitude Altitude Speed Heading
2026-04-22 14:44 55.41475 37.88341 581 ft 15 kts 326°
2026-04-22 14:44 55.41539 37.88264 581 ft 12 kts 326°
2026-04-22 14:44 55.41612 37.88176 582 ft 14 kts 325°
2026-04-22 14:44 55.41687 37.88086 582 ft 12 kts 326°
2026-04-22 14:45 55.41720 37.87987 583 ft 10 kts 256°
2026-04-22 14:45 55.41660 37.87950 585 ft 11 kts 177°
2026-04-22 14:45 55.41587 37.87951 586 ft 9 kts 195°
2026-04-22 14:45 55.41523 37.87927 586 ft 11 kts 161°
2026-04-22 14:46 55.41433 37.88028 585 ft 30 kts 145°
2026-04-22 14:46 55.41042 37.88493 580 ft 102 kts 146°
2026-04-22 14:46 55.40296 37.89391 565 ft 155 kts 146°
2026-04-22 14:46 55.39324 37.90527 963 ft 169 kts 148°
2026-04-22 14:47 55.38328 37.91621 1688 ft 167 kts 163°
2026-04-22 14:47 55.37198 37.92290 2148 ft 180 kts 167°
2026-04-22 14:47 55.35925 37.92994 2430 ft 204 kts 166°
2026-04-22 14:47 55.34488 37.93790 2835 ft 229 kts 166°
2026-04-22 14:48 55.32915 37.94666 3421 ft 242 kts 167°
2026-04-22 14:48 55.31248 37.94981 3901 ft 241 kts 195°
2026-04-22 14:48 55.29861 37.93542 4288 ft 234 kts 235°
2026-04-22 14:48 55.29024 37.91128 5262 ft 232 kts 246°
2026-04-22 14:49 55.28352 37.88532 5824 ft 235 kts 249°
2026-04-22 14:49 55.27861 37.85837 5974 ft 231 kts 268°
2026-04-22 14:49 55.28214 37.83133 6003 ft 233 kts 299°
2026-04-22 14:49 55.29427 37.81084 6435 ft 251 kts 324°
2026-04-22 14:50 55.30890 37.79394 7353 ft 252 kts 323°
2026-04-22 14:50 55.32349 37.77629 7851 ft 255 kts 324°
2026-04-22 14:50 55.33901 37.76193 7989 ft 257 kts 338°
2026-04-22 14:50 55.35718 37.75529 8234 ft 274 kts 355°
2026-04-22 14:51 55.37598 37.75407 9146 ft 274 kts 355°
2026-04-22 14:51 55.39505 37.75266 10041 ft 275 kts 355°
2026-04-22 14:51 55.41430 37.75113 10842 ft 278 kts 355°
2026-04-22 14:51 55.43374 37.74953 11482 ft 283 kts 355°
2026-04-22 14:52 55.45338 37.74788 11642 ft 282 kts 355°
2026-04-22 14:52 55.47295 37.74627 11670 ft 282 kts 355°
2026-04-22 14:52 55.49258 37.74470 11670 ft 282 kts 355°
2026-04-22 14:52 55.51215 37.74382 11669 ft 282 kts
2026-04-22 14:53 55.53148 37.74997 11669 ft 285 kts 15°
2026-04-22 14:53 55.54957 37.76445 11651 ft 288 kts 27°
2026-04-22 14:53 55.56685 37.78239 11650 ft 288 kts 27°
2026-04-22 14:53 55.58415 37.80022 11646 ft 288 kts 27°
2026-04-22 14:54 55.60141 37.81795 11649 ft 288 kts 27°
2026-04-22 14:54 55.61847 37.83649 11646 ft 289 kts 35°
2026-04-22 14:54 55.63222 37.86266 11648 ft 295 kts 54°
2026-04-22 14:54 55.64035 37.89620 11649 ft 305 kts 75°
2026-04-22 14:55 55.64129 37.93509 12025 ft 327 kts 97°
2026-04-22 14:55 55.63656 37.97498 12535 ft 335 kts 101°
2026-04-22 14:55 55.63142 38.01526 12636 ft 335 kts 101°
2026-04-22 14:55 55.62621 38.05546 12646 ft 335 kts 101°
2026-04-22 14:56 55.62100 38.09565 12645 ft 335 kts 101°
2026-04-22 14:56 55.61583 38.13579 12646 ft 335 kts 101°
2026-04-22 14:56 55.61073 38.17560 12824 ft 339 kts 101°
2026-04-22 14:56 55.60555 38.21638 13472 ft 341 kts 100°
2026-04-22 14:57 55.60036 38.25719 13619 ft 341 kts 101°
2026-04-22 14:57 55.59511 38.29816 13644 ft 340 kts 101°
2026-04-22 14:57 55.58989 38.33888 13651 ft 340 kts 101°
2026-04-22 14:57 55.58470 38.37965 13651 ft 339 kts 99°
2026-04-22 14:58 55.58224 38.42091 13648 ft 336 kts 86°
2026-04-22 14:58 55.58473 38.46175 13666 ft 334 kts 74°
2026-04-22 14:58 55.59220 38.50062 14212 ft 333 kts 62°
2026-04-22 14:58 55.60328 38.53641 14932 ft 333 kts 56°
2026-04-22 14:59 55.61502 38.57202 15505 ft 336 kts 57°
2026-04-22 14:59 55.62678 38.60776 15636 ft 335 kts 57°
2026-04-22 14:59 55.63855 38.64349 15881 ft 337 kts 57°
2026-04-22 14:59 55.65040 38.67934 16481 ft 339 kts 57°
2026-04-22 15:00 55.66233 38.71544 16641 ft 339 kts 57°
2026-04-22 15:00 55.67424 38.75147 16658 ft 339 kts 57°
2026-04-22 15:00 55.68600 38.78706 16658 ft 339 kts 57°
2026-04-22 15:00 55.69788 38.82321 16659 ft 339 kts 57°
2026-04-22 15:01 55.70970 38.85933 16657 ft 339 kts 57°
2026-04-22 15:01 55.72154 38.89548 16653 ft 339 kts 57°
2026-04-22 15:01 55.73395 38.93086 16653 ft 337 kts 50°
2026-04-22 15:01 55.74948 38.96196 16996 ft 338 kts 43°
2026-04-22 15:02 55.76576 38.99217 17708 ft 339 kts 44°
2026-04-22 15:02 55.78199 39.02273 18307 ft 342 kts 44°
2026-04-22 15:02 55.79828 39.05366 18889 ft 344 kts 44°
2026-04-22 15:02 55.81470 39.08490 19460 ft 346 kts 44°
2026-04-22 15:03 55.83117 39.11626 20037 ft 349 kts 44°
2026-04-22 15:03 55.84706 39.14942 20524 ft 355 kts 51°
2026-04-22 15:03 55.85978 39.18790 20698 ft 370 kts 60°
2026-04-22 15:03 55.87132 39.22938 21056 ft 377 kts 60°
2026-04-22 15:04 55.88299 39.27133 21530 ft 380 kts 60°
2026-04-22 15:04 55.89478 39.31368 22041 ft 383 kts 60°
2026-04-22 15:04 55.90663 39.35634 22553 ft 385 kts 60°
2026-04-22 15:04 55.91838 39.39869 23042 ft 388 kts 60°
2026-04-22 15:05 55.93035 39.44186 23465 ft 390 kts 60°
2026-04-22 15:05 55.94258 39.48596 23870 ft 392 kts 60°
2026-04-22 15:05 55.95451 39.52915 24266 ft 395 kts 60°
2026-04-22 15:05 55.96664 39.57326 24663 ft 397 kts 60°
2026-04-22 15:06 55.97491 39.60333 24929 ft 399 kts 60°
2026-04-22 15:06 55.99115 39.66250 25408 ft 403 kts 60°
2026-04-22 15:06 56.00371 39.70745 25764 ft 405 kts 59°
2026-04-22 15:06 56.01671 39.75223 26134 ft 407 kts 58°
2026-04-22 15:07 56.03007 39.79702 26494 ft 409 kts 58°
2026-04-22 15:07 56.04363 39.84197 26852 ft 411 kts 58°
2026-04-22 15:07 56.05720 39.88708 27214 ft 414 kts 58°
2026-04-22 15:07 56.07080 39.93267 27581 ft 416 kts 58°
2026-04-22 15:08 56.08436 39.97863 27944 ft 418 kts 58°
2026-04-22 15:08 56.09788 40.02488 28281 ft 421 kts 58°
2026-04-22 15:08 56.11148 40.07163 28627 ft 423 kts 58°
2026-04-22 15:08 56.12515 40.11857 28973 ft 425 kts 58°
2026-04-22 15:09 56.13871 40.16515 29273 ft 429 kts 58°
2026-04-22 15:09 56.15257 40.21277 29550 ft 432 kts 58°
2026-04-22 15:09 56.17963 40.30653 29629 ft 410 kts 59°
2026-04-22 15:10 56.20553 40.39659 29626 ft 404 kts 59°
2026-04-22 15:10 56.22709 40.47166 29618 ft 403 kts 59°
2026-04-22 15:11 56.25123 40.56180 29615 ft 406 kts 67°
2026-04-22 15:11 56.26079 40.66259 29643 ft 415 kts 88°
2026-04-22 15:12 56.25690 40.76661 29625 ft 417 kts 91°
2026-04-22 15:12 56.25273 40.87082 29613 ft 418 kts 91°
2026-04-22 15:13 56.24840 40.97508 29615 ft 418 kts 91°
2026-04-22 15:13 56.24396 41.07941 29615 ft 418 kts 91°
2026-04-22 15:14 56.23940 41.18367 29623 ft 418 kts 92°
2026-04-22 15:14 56.23474 41.28784 29635 ft 417 kts 92°
2026-04-22 15:15 56.23007 41.39175 29637 ft 417 kts 92°
2026-04-22 15:15 56.22533 41.49483 29642 ft 416 kts 92°
2026-04-22 15:16 56.22050 41.59834 29484 ft 413 kts 92°
2026-04-22 15:16 56.21809 41.64921 29209 ft 404 kts 92°
2026-04-22 15:16 56.21570 41.69913 28921 ft 399 kts 92°
2026-04-22 15:17 56.21332 41.74863 28644 ft 396 kts 92°
2026-04-22 15:17 56.21095 41.79779 28362 ft 394 kts 92°
2026-04-22 15:17 56.20853 41.84692 28080 ft 392 kts 92°
2026-04-22 15:17 56.20611 41.89546 27818 ft 388 kts 92°
2026-04-22 15:18 56.20370 41.94335 27429 ft 382 kts 92°
2026-04-22 15:18 56.20131 41.99065 27002 ft 378 kts 92°
2026-04-22 15:18 56.19890 42.03755 26578 ft 375 kts 92°
2026-04-22 15:18 56.19651 42.08383 26178 ft 371 kts 92°
2026-04-22 15:19 56.19417 42.12920 25774 ft 368 kts 92°
2026-04-22 15:19 56.19178 42.17485 25349 ft 365 kts 92°
2026-04-22 15:19 56.18935 42.21998 24925 ft 363 kts 92°
2026-04-22 15:19 56.18690 42.26508 24490 ft 361 kts 92°
2026-04-22 15:20 56.18446 42.30984 24062 ft 360 kts 92°
2026-04-22 15:20 56.18202 42.35445 23626 ft 358 kts 92°
2026-04-22 15:20 56.17958 42.39887 23175 ft 357 kts 92°
2026-04-22 15:20 56.17713 42.44321 22689 ft 356 kts 92°
2026-04-22 15:21 56.17470 42.48715 22259 ft 353 kts 92°
2026-04-22 15:21 56.17225 42.53083 21826 ft 350 kts 92°
2026-04-22 15:21 56.16981 42.57418 21426 ft 348 kts 93°
2026-04-22 15:21 56.16737 42.61734 21009 ft 346 kts 93°
2026-04-22 15:22 56.16492 42.66022 20577 ft 345 kts 94°
2026-04-22 15:22 56.16249 42.70226 20169 ft 342 kts 94°
2026-04-22 15:22 56.16002 42.74465 19765 ft 341 kts 94°
2026-04-22 15:22 56.15757 42.78676 19354 ft 339 kts 94°
2026-04-22 15:23 56.15512 42.82872 18948 ft 338 kts 94°
2026-04-22 15:23 56.15268 42.87052 18551 ft 337 kts 94°
2026-04-22 15:23 56.15022 42.91229 18155 ft 336 kts 95°
2026-04-22 15:23 56.14776 42.95391 17726 ft 335 kts 95°
2026-04-22 15:24 56.14528 42.99531 17318 ft 333 kts 95°
2026-04-22 15:24 56.14280 43.03647 16925 ft 331 kts 95°
2026-04-22 15:24 56.14031 43.07743 16537 ft 329 kts 95°
2026-04-22 15:24 56.13782 43.11807 16159 ft 327 kts 95°
2026-04-22 15:25 56.13532 43.15849 15789 ft 326 kts 95°
2026-04-22 15:25 56.13350 43.19893 15415 ft 324 kts 88°
2026-04-22 15:25 56.13607 43.23882 15041 ft 322 kts 75°
2026-04-22 15:25 56.14270 43.27693 14663 ft 320 kts 70°
2026-04-22 15:26 56.14983 43.31473 14300 ft 319 kts 70°
2026-04-22 15:26 56.15692 43.35250 13932 ft 319 kts 70°
2026-04-22 15:26 56.16393 43.39011 13562 ft 315 kts 70°
2026-04-22 15:26 56.17074 43.42695 13175 ft 310 kts 70°
2026-04-22 15:27 56.17745 43.46324 12798 ft 310 kts 70°
2026-04-22 15:27 56.18424 43.49989 12437 ft 309 kts 70°
2026-04-22 15:27 56.19100 43.53647 12069 ft 308 kts 70°
2026-04-22 15:27 56.19771 43.57288 11696 ft 307 kts 71°
2026-04-22 15:28 56.20439 43.60918 11326 ft 306 kts 71°
2026-04-22 15:28 56.21106 43.64540 10947 ft 305 kts 71°
2026-04-22 15:28 56.21766 43.68133 10556 ft 301 kts 71°
2026-04-22 15:28 56.22411 43.71661 10190 ft 295 kts 71°
2026-04-22 15:29 56.23051 43.75166 9823 ft 295 kts 71°
2026-04-22 15:29 56.23691 43.78674 9420 ft 295 kts 71°
2026-04-22 15:29 56.24332 43.82178 8983 ft 295 kts 71°
2026-04-22 15:30 56.25604 43.89174 7953 ft 291 kts 71°
2026-04-22 15:30 56.26221 43.92592 7412 ft 284 kts 70°
2026-04-22 15:30 56.26836 43.95977 6890 ft 287 kts 69°
2026-04-22 15:30 56.27775 43.99124 6341 ft 283 kts 46°
2026-04-22 15:31 56.29282 44.01248 5806 ft 270 kts 22°
2026-04-22 15:31 56.31041 44.02075 5421 ft 256 kts 359°
2026-04-22 15:31 56.32745 44.01741 5040 ft 248 kts 339°
2026-04-22 15:31 56.34289 44.00303 4506 ft 246 kts 317°
2026-04-22 15:32 56.35416 43.98030 4002 ft 238 kts 301°
2026-04-22 15:32 56.36312 43.95739 3943 ft 216 kts 302°
2026-04-22 15:32 56.37181 43.93545 3866 ft 207 kts 302°
2026-04-22 15:32 56.37978 43.91545 3743 ft 192 kts 302°
2026-04-22 15:33 56.38699 43.89633 3671 ft 176 kts 292°
2026-04-22 15:33 56.38939 43.87595 3545 ft 161 kts 265°
2026-04-22 15:33 56.38637 43.85716 3321 ft 156 kts 240°
2026-04-22 15:33 56.37913 43.84352 3121 ft 148 kts 215°
2026-04-22 15:34 56.36967 43.83722 2954 ft 144 kts 196°
2026-04-22 15:34 56.36010 43.83373 2765 ft 137 kts 197°
2026-04-22 15:34 56.35084 43.83030 2562 ft 135 kts 197°
2026-04-22 15:34 56.34170 43.82692 2377 ft 134 kts 197°
2026-04-22 15:35 56.33567 43.82470 2252 ft 133 kts 197°
2026-04-22 15:35 56.32357 43.82024 2015 ft 132 kts 196°
2026-04-22 15:35 56.31456 43.81692 1825 ft 132 kts 196°
2026-04-22 15:35 56.30555 43.81361 1649 ft 132 kts 196°
2026-04-22 15:36 56.29657 43.81030 1474 ft 132 kts 196°
2026-04-22 15:36 56.28758 43.80700 1273 ft 132 kts 195°
2026-04-22 15:36 56.27856 43.80395 1102 ft 132 kts 192°
2026-04-22 15:36 56.26953 43.80072 848 ft 133 kts 194°
2026-04-22 15:37 56.26041 43.79725 697 ft 135 kts 192°
2026-04-22 15:37 56.25124 43.79384 521 ft 134 kts 192°
2026-04-22 15:37 56.24217 43.79047 327 ft 132 kts 192°
2026-04-22 15:37 56.23384 43.78731 260 ft 93 kts 192°
2026-04-22 15:38 56.22973 43.78579 263 ft 47 kts 191°
2026-04-22 15:38 56.22386 43.78366 260 ft 39 kts 192°
2026-04-22 15:38 56.22139 43.78274 260 ft 32 kts 191°
2026-04-22 15:39 56.22001 43.78223 259 ft 9 kts 191°
2026-04-22 15:39 56.21948 43.78282 259 ft 10 kts 108°
2026-04-22 15:39 56.21933 43.78389 260 ft 8 kts 102°
2026-04-22 15:39 56.21923 43.78478 260 ft 7 kts 101°
2026-04-22 15:40 56.21916 43.78550 260 ft 5 kts 100°
2026-04-22 15:40 56.21912 43.78608 260 ft 4 kts 89°
2026-04-22 15:40 56.21925 43.78638 260 ft 2 kts 29°
2026-04-22 15:40 56.21949 43.78646 260 ft 4 kts 10°
2026-04-22 15:41 56.21995 43.78661 260 ft 10 kts 10°
2026-04-22 15:41 56.22077 43.78690 260 ft 13 kts 11°
2026-04-22 15:41 56.22150 43.78718 260 ft 8 kts 13°
2026-04-22 15:41 56.22203 43.78739 260 ft 7 kts 12°
2026-04-22 15:42 56.22248 43.78755 260 ft 6 kts 10°
2026-04-22 15:42 56.22286 43.78767 260 ft 5 kts
2026-04-22 15:42 56.22339 43.78785 260 ft 11 kts 12°
2026-04-22 15:42 56.22415 43.78815 260 ft 10 kts 15°
2026-04-22 15:43 56.22474 43.78868 260 ft 9 kts 24°
2026-04-22 15:43 56.22526 43.78895 260 ft 7 kts 32°
2026-04-22 15:43 56.22550 43.78964 260 ft 8 kts 47°
2026-04-22 15:43 56.22595 43.79006 260 ft 7 kts 15°
2026-04-22 15:44 56.22650 43.79024 260 ft 9 kts 12°
2026-04-22 15:44 56.22707 43.79050 260 ft 8 kts 17°
2026-04-22 15:44 56.22750 43.79082 260 ft 6 kts 40°
2026-04-22 15:44 56.22753 43.79135 260 ft 4 kts 101°
2026-04-22 15:45 56.22749 43.79174 260 ft 3 kts 103°
2026-04-22 15:45 56.22747 43.79192 260 ft 0 kts 103°